DL1GHN-6 Weather Reports


time (UTC)temp
C
wind
direction
speed
KPH
gust
KPH
rain 1hr
cm
rain 24hr
cm
rain mn
cm
humidity
%
barometer
mb
20260903074728 18 152 3.2 8.0 0.00 0.00 0.00 71 1023.0
20260903074231 18 275 4.8 9.7 0.00 0.00 0.00 74 1023.1
20260903073728 17 302 3.2 9.7 0.00 0.00 0.00 76 1023.1
20260903073228 17 237 1.6 4.8 0.00 0.00 0.00 78 1023.1
20260903072729 16 194 4.8 11.3 0.00 0.00 0.00 81 1023.1
20260903072228 16 274 1.6 8.0 0.00 0.00 0.00 85 1023.1
20260903071728 16 280 0.0 4.8 0.00 0.00 0.00 88 1022.9
20260903071228 15 240 1.6 4.8 0.00 0.00 0.00 89 1022.8
20260903070728 15 302 1.6 3.2 0.00 0.00 0.00 89 1022.9
20260903070229 15 277 1.6 3.2 0.00 0.00 0.00 90 1022.9
20260903065729 15 311 1.6 4.8 0.00 0.00 0.00 90 1022.8
20260903065229 14 307 1.6 4.8 0.00 0.00 0.00 90 1022.7
20260903064728 14 288 1.6 3.2 0.00 0.00 0.00 90 1022.8
20260903064229 13 272 1.6 3.2 0.00 0.00 0.00 90 1022.7
20260903063728 13 221 0.0 1.6 0.00 0.00 0.00 91 1022.7
20260903063228 13 173 0.0 1.6 0.00 0.00 0.00 90 1022.6
20260903062729 12 128 0.0 1.6 0.00 0.00 0.00 90 1022.5
20260903062228 12 139 0.0 1.6 0.00 0.00 0.00 90 1022.6
20260903061728 12 158 0.0 1.6 0.00 0.00 0.00 90 1022.6
20260903061228 12 161 0.0 0.0 0.00 0.00 0.00 90 1022.7
20260903060728 12 166 0.0 0.0 0.00 0.00 0.00 90 1022.7
20260903060229 11 159 0.0 1.6 0.00 0.00 0.00 90 1022.7
20260903055729 11 174 0.0 1.6 0.00 0.00 0.00 90 1022.7
20260903055228 11 159 0.0 1.6 0.00 0.00 0.00 89 1022.8
20260903054729 11 155 0.0 0.0 0.00 0.00 0.00 89 1022.9
20260903054228 11 150 0.0 1.6 0.00 0.00 0.00 89 1023.0
20260903053729 11 159 0.0 1.6 0.00 0.00 0.00 89 1022.9
20260903053229 11 184 0.0 1.6 0.00 0.00 0.00 89 1022.9
20260903052728 11 146 0.0 3.2 0.00 0.00 0.00 89 1022.9
20260903052228 11 145 0.0 3.2 0.00 0.00 0.00 89 1022.8
20260903051728 11 150 0.0 4.8 0.00 0.00 0.00 88 1022.8
20260903051229 11 293 0.0 0.0 0.00 0.00 0.00 88 1022.8
20260903050728 11 297 0.0 1.6 0.00 0.00 0.00 88 1022.7
20260903050228 11 292 0.0 3.2 0.00 0.00 0.00 88 1022.6
20260903045728 11 265 0.0 3.2 0.00 0.00 0.00 88 1022.6
20260903045228 11 250 0.0 3.2 0.00 0.00 0.00 88 1022.5
20260903044728 11 217 0.0 1.6 0.00 0.00 0.00 88 1022.4
20260903044229 11 160 0.0 1.6 0.00 0.00 0.00 88 1022.3
20260903043728 11 137 0.0 1.6 0.00 0.00 0.00 87 1022.1
20260903043228 11 137 0.0 1.6 0.00 0.00 0.00 87 1022.1
20260903042729 11 137 1.6 1.6 0.00 0.00 0.00 87 1022.0
20260903042228 11 137 0.0 1.6 0.00 0.00 0.00 87 1022.1
20260903041728 11 137 0.0 1.6 0.00 0.00 0.00 87 1022.0
20260903041228 11 138 0.0 1.6 0.00 0.00 0.00 87 1022.2
20260903040728 11 138 0.0 1.6 0.00 0.00 0.00 87 1022.1
20260903040229 11 137 0.0 0.0 0.00 0.00 0.00 87 1022.2
20260903035729 11 139 0.0 3.2 0.00 0.00 0.00 87 1022.2
20260903035228 11 123 1.6 1.6 0.00 0.00 0.00 87 1022.2
20260903034730 11 128 0.0 1.6 0.00 0.00 0.00 87 1022.4
20260903034229 11 128 0.0 3.2 0.00 0.00 0.00 87 1022.4
20260903033729 11 119 1.6 1.6 0.00 0.00 0.00 87 1022.3
20260903033229 11 63 0.0 0.0 0.00 0.00 0.00 87 1022.4
20260903032729 11 63 0.0 1.6 0.00 0.00 0.00 87 1022.4
20260903032229 11 113 0.0 1.6 0.00 0.00 0.00 87 1022.3
20260903031728 11 146 0.0 1.6 0.00 0.00 0.00 87 1022.2
20260903031228 11 157 1.6 3.2 0.00 0.00 0.00 87 1022.2
20260903030506 11 196 0.0 0.0 0.00 0.00 0.00 86 1022.4
20260903030005 11 196 0.0 0.0 0.00 0.00 0.00 86 1022.4
20260903025505 11 197 0.0 3.2 0.00 0.00 0.00 86 1022.4
20260903025006 11 206 1.6 3.2 0.00 0.00 0.00 86 1022.3
20260903024506 11 139 0.0 3.2 0.00 0.00 0.00 86 1022.4
20260903024006 11 124 0.0 1.6 0.00 0.00 0.00 86 1022.4
20260903023505 12 121 0.0 1.6 0.00 0.00 0.00 86 1022.4
20260903023006 12 161 0.0 0.0 0.00 0.00 0.00 86 1022.5
20260903022506 12 162 0.0 0.0 0.00 0.00 0.00 85 1022.5
20260903022005 12 161 0.0 0.0 0.00 0.00 0.00 85 1022.5
20260903021505 12 162 0.0 0.0 0.00 0.00 0.00 85 1022.4
20260903021005 12 162 0.0 0.0 0.00 0.00 0.00 85 1022.4
20260903020505 12 162 0.0 0.0 0.00 0.00 0.00 85 1022.4
20260903020006 12 162 0.0 0.0 0.00 0.00 0.00 85 1022.3
20260903015506 12 162 0.0 1.6 0.00 0.00 0.00 85 1022.4
20260903015005 12 162 0.0 1.6 0.00 0.00 0.00 85 1022.3
20260903014506 12 162 0.0 1.6 0.00 0.00 0.00 85 1022.3
20260903014006 12 162 0.0 1.6 0.00 0.00 0.00 85 1022.3
20260903013506 12 162 0.0 1.6 0.00 0.00 0.00 85 1022.2
20260903013005 12 162 0.0 1.6 0.00 0.00 0.00 85 1022.3
20260903012506 12 162 0.0 3.2 0.00 0.00 0.00 85 1022.4
20260903012006 13 154 1.6 1.6 0.00 0.00 0.00 85 1022.4
20260903011505 13 147 0.0 1.6 0.00 0.00 0.00 85 1022.4
20260903011006 13 147 0.0 1.6 0.00 0.00 0.00 85 1022.4
20260903010505 13 147 1.6 3.2 0.00 0.00 0.00 85 1022.4
20260903010005 13 144 1.6 1.6 0.00 0.00 0.00 85 1022.4
20260903005506 13 155 0.0 1.6 0.00 0.00 0.00 85 1022.4
20260903005006 13 161 1.6 4.8 0.00 0.00 0.00 85 1022.3
20260903004506 13 153 0.0 1.6 0.00 0.00 0.00 84 1022.3
20260903004005 13 153 1.6 3.2 0.00 0.00 0.00 84 1022.4
20260903003506 13 146 0.0 1.6 0.00 0.00 0.00 84 1022.4
20260903003005 13 146 0.0 1.6 0.00 0.00 0.00 84 1022.4
20260903002505 13 146 1.6 1.6 0.00 0.00 0.00 84 1022.3
20260903002005 13 146 1.6 3.2 0.00 0.00 0.00 84 1022.2
20260903001506 13 144 0.0 3.2 0.00 0.00 0.00 84 1022.2
20260903001006 13 125 0.0 0.0 0.00 0.00 0.00 84 1022.2
20260903000505 13 125 1.6 3.2 0.00 0.00 0.00 84 1022.2
20260903000006 13 125 0.0 0.0 0.00 0.00 0.00 84 1022.2
20260902235505 13 125 0.0 1.6 0.00 0.00 0.00 84 1022.2
20260902235006 13 148 1.6 4.8 0.00 0.00 0.00 84 1022.2
20260902234506 13 158 0.0 0.0 0.00 0.00 0.00 84 1022.1
20260902234005 13 158 0.0 0.0 0.00 0.00 0.00 84 1022.1
20260902233506 13 158 0.0 1.6 0.00 0.00 0.00 84 1022.1
20260902233006 14 180 0.0 3.2 0.00 0.00 0.00 84 1022.1
20260902232505 14 146 1.6 3.2 0.00 0.00 0.00 83 1022.1
20260902232006 14 132 3.2 4.8 0.00 0.00 0.00 83 1022.1
20260902231506 14 112 0.0 3.2 0.00 0.00 0.00 83 1022.1
20260902231006 14 119 0.0 1.6 0.00 0.00 0.00 83 1022.0
20260902230506 14 119 1.6 3.2 0.00 0.00 0.00 83 1022.1
20260902230006 14 84 0.0 3.2 0.00 0.00 0.00 83 1022.1
20260902225506 14 62 0.0 3.2 0.00 0.00 0.00 83 1022.1
20260902225006 14 139 0.0 4.8 0.00 0.00 0.00 83 1022.1
20260902224505 14 144 0.0 1.6 0.00 0.00 0.00 82 1022.2
20260902224005 14 144 1.6 3.2 0.00 0.00 0.00 82 1022.1
20260902223506 14 130 1.6 3.2 0.00 0.00 0.00 82 1022.1
20260902223004 15 130 0.0 1.6 0.00 0.00 0.00 81 1022.1
20260902222506 15 130 0.0 0.0 0.00 0.00 0.00 81 1022.0
20260902222006 15 130 0.0 0.0 0.00 0.00 0.00 81 1022.0
20260902221506 15 130 0.0 0.0 0.00 0.00 0.00 81 1022.0
20260902221005 15 130 0.0 4.8 0.00 0.00 0.00 81 1022.0
20260902220504 15 142 1.6 4.8 0.00 0.00 0.00 80 1022.0
20260902220006 15 151 0.0 3.2 0.00 0.00 0.00 80 1021.9
20260902215506 15 151 0.0 1.6 0.00 0.00 0.00 80 1022.0
20260902215006 15 151 0.0 3.2 0.00 0.00 0.00 80 1021.9
20260902214506 15 150 0.0 3.2 0.00 0.00 0.00 80 1021.9
20260902214006 15 124 1.6 3.2 0.00 0.00 0.00 80 1021.9
20260902213505 16 149 1.6 3.2 0.00 0.00 0.00 79 1021.8
20260902213006 16 117 0.0 1.6 0.00 0.00 0.00 79 1021.8
20260902212505 16 111 0.0 3.2 0.00 0.00 0.00 79 1021.7
20260902212006 16 171 1.6 3.2 0.00 0.00 0.00 79 1021.7
20260902211506 16 126 0.0 1.6 0.00 0.00 0.00 78 1021.7
20260902211006 16 125 0.0 1.6 0.00 0.00 0.00 78 1021.6
20260902210506 16 125 1.6 3.2 0.00 0.00 0.00 78 1021.6
20260902210005 16 130 1.6 1.6 0.00 0.00 0.00 78 1021.6
20260902205505 16 124 1.6 3.2 0.00 0.00 0.00 78 1021.6
20260902205006 16 239 3.2 4.8 0.00 0.00 0.00 78 1021.6
20260902204505 16 144 3.2 4.8 0.00 0.00 0.00 77 1021.6
20260902204006 16 209 0.0 1.6 0.00 0.00 0.00 76 1021.6
20260902203505 16 210 0.0 1.6 0.00 0.00 0.00 76 1021.6
20260902203005 16 165 0.0 1.6 0.00 0.00 0.00 75 1021.5
20260902202504 17 148 0.0 1.6 0.00 0.00 0.00 75 1021.3
20260902202005 17 148 1.6 3.2 0.00 0.00 0.00 75 1021.3
20260902201505 17 148 0.0 1.6 0.00 0.00 0.00 75 1021.3
20260902201005 17 148 0.0 1.6 0.00 0.00 0.00 74 1021.3
20260902200504 17 150 1.6 3.2 0.00 0.00 0.00 74 1021.2
20260902200005 17 159 0.0 3.2 0.00 0.00 0.00 74 1021.2
20260902195506 17 153 0.0 1.6 0.00 0.00 0.00 73 1021.2
20260902195005 17 153 0.0 0.0 0.00 0.00 0.00 73 1021.1
20260902194505 18 153 0.0 3.2 0.00 0.00 0.00 72 1021.1
20260902194006 18 153 1.6 3.2 0.00 0.00 0.00 72 1021.0
20260902193506 18 71 0.0 1.6 0.00 0.00 0.00 71 1021.0
20260902193006 18 71 0.0 0.0 0.00 0.00 0.00 70 1020.9
20260902192506 18 71 0.0 1.6 0.00 0.00 0.00 70 1020.9
20260902192006 19 71 0.0 0.0 0.00 0.00 0.00 69 1021.0
20260902191505 19 71 0.0 0.0 0.00 0.00 0.00 69 1020.8
20260902191006 19 71 0.0 0.0 0.00 0.00 0.00 68 1020.8
20260902190505 20 71 0.0 1.6 0.00 0.00 0.00 68 1020.8
20260902190006 20 53 0.0 3.2 0.00 0.00 0.00 67 1020.7
20260902185505 20 40 0.0 1.6 0.00 0.00 0.00 67 1020.7
20260902185006 20 38 0.0 1.6 0.00 0.00 0.00 66 1020.6
20260902184506 21 38 0.0 0.0 0.00 0.00 0.00 65 1020.5
20260902184005 21 38 0.0 3.2 0.00 0.00 0.00 64 1020.5
20260902183506 21 58 1.6 3.2 0.00 0.00 0.00 63 1020.4
20260902183004 21 355 0.0 0.0 0.00 0.00 0.00 62 1020.4
20260902182504 22 355 0.0 1.6 0.00 0.00 0.00 61 1020.3
20260902182006 22 355 0.0 1.6 0.00 0.00 0.00 60 1020.2
20260902181505 22 355 0.0 1.6 0.00 0.00 0.00 58 1020.1
20260902181006 22 351 0.0 1.6 0.00 0.00 0.00 57 1020.2
20260902180505 23 313 0.0 1.6 0.00 0.00 0.00 57 1020.1
20260902180007 23 327 0.0 1.6 0.00 0.00 0.00 56 1020.1
20260902175505 23 295 1.6 4.8 0.00 0.00 0.00 56 1020.0
20260902175005 23 277 1.6 4.8 0.00 0.00 0.00 55 1019.9
20260902174506 23 355 1.6 3.2 0.00 0.00 0.00 54 1019.8
20260902174006 23 336 3.2 6.4 0.00 0.00 0.00 55 1019.8
20260902173505 24 201 1.6 4.8 0.00 0.00 0.00 55 1019.8
20260902173006 24 347 1.6 6.4 0.00 0.00 0.00 55 1019.8
20260902172505 24 320 1.6 3.2 0.00 0.00 0.00 55 1019.8
20260902172006 24 77 1.6 4.8 0.00 0.00 0.00 54 1019.8
20260902171506 24 12 1.6 6.4 0.00 0.00 0.00 54 1019.8
20260902171006 24 30 1.6 4.8 0.00 0.00 0.00 53 1019.7
20260902170506 25 348 3.2 4.8 0.00 0.00 0.00 52 1019.7
20260902170005 25 5 1.6 6.4 0.00 0.00 0.00 51 1019.6
20260902165505 25 238 0.0 4.8 0.00 0.00 0.00 50 1019.6
20260902165004 25 222 3.2 9.7 0.00 0.00 0.00 49 1019.5
20260902164504 26 74 1.6 9.7 0.00 0.00 0.00 49 1019.5
20260902164005 26 100 1.6 11.3 0.00 0.00 0.00 48 1019.5
20260902163505 26 24 3.2 8.0 0.00 0.00 0.00 49 1019.5
20260902163006 26 32 3.2 8.0 0.00 0.00 0.00 47 1019.5
20260902162506 26 256 4.8 8.0 0.00 0.00 0.00 47 1019.6
20260902162005 26 53 1.6 8.0 0.00 0.00 0.00 49 1019.7
20260902161505 26 5 3.2 6.4 0.00 0.00 0.00 50 1019.7
20260902161006 26 290 3.2 8.0 0.00 0.00 0.00 49 1019.8
20260902160506 26 64 1.6 6.4 0.00 0.00 0.00 51 1019.8
20260902160007 26 325 1.6 6.4 0.00 0.00 0.00 51 1019.7
20260902155506 26 294 1.6 6.4 0.00 0.00 0.00 51 1019.9
20260902155006 26 360 3.2 6.4 0.00 0.00 0.00 51 1019.9
20260902154505 26 355 3.2 6.4 0.00 0.00 0.00 52 1019.9
20260902154004 26 330 3.2 8.0 0.00 0.00 0.00 51 1019.9
20260902153505 26 24 1.6 11.3 0.00 0.00 0.00 50 1019.9
20260902153006 26 269 0.0 9.7 0.00 0.00 0.00 52 1019.8
20260902152505 26 10 0.0 9.7 0.00 0.00 0.00 53 1019.8
20260902152006 26 296 4.8 9.7 0.00 0.00 0.00 51 1019.9
20260902151506 26 347 1.6 9.7 0.00 0.00 0.00 52 1019.8
20260902151006 26 326 4.8 6.4 0.00 0.00 0.00 51 1019.9
20260902150506 26 313 3.2 12.9 0.00 0.00 0.00 51 1019.9
20260902150006 26 320 3.2 8.0 0.00 0.00 0.00 51 1019.8
20260902145505 26 5 1.6 6.4 0.00 0.00 0.00 50 1019.8
20260902145006 26 360 3.2 11.3 0.00 0.00 0.00 51 1019.8
20260902144506 26 296 4.8 9.7 0.00 0.00 0.00 50 1019.9
20260902144005 26 340 4.8 8.0 0.00 0.00 0.00 50 1019.9
20260902143505 26 134 4.8 11.3 0.00 0.00 0.00 49 1019.8
20260902143005 26 259 1.6 6.4 0.00 0.00 0.00 52 1019.9
20260902142505 26 238 1.6 4.8 0.00 0.00 0.00 51 1019.9
20260902142004 26 360 3.2 8.0 0.00 0.00 0.00 49 1020.0
20260902141505 26 315 3.2 8.0 0.00 0.00 0.00 48 1019.9
20260902141006 26 326 3.2 8.0 0.00 0.00 0.00 48 1019.9
20260902140505 26 274 3.2 8.0 0.00 0.00 0.00 47 1020.0
20260902140005 26 334 8.0 11.3 0.00 0.00 0.00 46 1019.9
20260902135506 27 297 8.0 14.5 0.00 0.00 0.00 46 1019.9
20260902135005 27 329 4.8 8.0 0.00 0.00 0.00 45 1019.9
20260902134505 28 328 6.4 14.5 0.00 0.00 0.00 45 1019.9
20260902134005 28 345 6.4 14.5 0.00 0.00 0.00 43 1019.8
20260902133505 28 43 4.8 14.5 0.00 0.00 0.00 44 1019.8
20260902133005 27 323 1.6 11.3 0.00 0.00 0.00 45 1020.0
20260902132505 27 279 4.8 12.9 0.00 0.00 0.00 44 1020.0
20260902132006 28 273 3.2 14.5 0.00 0.00 0.00 43 1020.0
20260902131504 28 339 6.4 8.0 0.00 0.00 0.00 42 1020.0
20260902131005 28 355 1.6 8.0 0.00 0.00 0.00 47 1020.1
20260902130504 28 48 3.2 4.8 0.00 0.00 0.00 47 1020.1
20260902130004 27 272 3.2 8.0 0.00 0.00 0.00 45 1020.1
20260902125506 27 340 4.8 11.3 0.00 0.00 0.00 45 1020.2
20260902125004 27 304 8.0 16.1 0.00 0.00 0.00 45 1020.3
20260902124505 27 316 3.2 11.3 0.00 0.00 0.00 47 1020.3
20260902124006 27 337 4.8 12.9 0.00 0.00 0.00 45 1020.3
20260902123505 27 151 1.6 4.8 0.00 0.00 0.00 44 1020.3
20260902123005 27 257 3.2 6.4 0.00 0.00 0.00 47 1020.4
20260902122506 27 252 1.6 4.8 0.00 0.00 0.00 46 1020.4
20260902122005 27 173 4.8 9.7 0.00 0.00 0.00 45 1020.4
20260902121505 27 313 4.8 8.0 0.00 0.00 0.00 45 1020.5
20260902121005 27 314 4.8 11.3 0.00 0.00 0.00 45 1020.5
20260902120505 27 217 6.4 12.9 0.00 0.00 0.00 43 1020.4
20260902120006 28 229 3.2 6.4 0.00 0.00 0.00 44 1020.4
20260902115506 28 232 6.4 11.3 0.00 0.00 0.00 45 1020.5
20260902115005 28 277 1.6 8.0 0.00 0.00 0.00 46 1020.5
20260902114506 27 271 3.2 6.4 0.00 0.00 0.00 48 1020.6
20260902114004 27 304 3.2 9.7 0.00 0.00 0.00 47 1020.6
20260902113506 27 277 1.6 4.8 0.00 0.00 0.00 50 1020.6
20260902113005 27 281 1.6 9.7 0.00 0.00 0.00 50 1020.7
20260902112504 27 69 1.6 11.3 0.00 0.00 0.00 48 1020.7
20260902112004 27 38 4.8 9.7 0.00 0.00 0.00 47 1020.7
20260902111504 27 234 3.2 6.4 0.00 0.00 0.00 46 1020.7
20260902111006 26 300 4.8 9.7 0.00 0.00 0.00 48 1020.8
20260902110505 26 225 3.2 6.4 0.00 0.00 0.00 47 1020.8
20260902110008 26 223 1.6 6.4 0.00 0.00 0.00 47 1020.9
20260902105505 26 300 3.2 8.0 0.00 0.00 0.00 47 1020.9
20260902105006 26 274 1.6 8.0 0.00 0.00 0.00 48 1020.9
20260902104506 26 316 3.2 11.3 0.00 0.00 0.00 50 1021.0
20260902104006 25 259 4.8 9.7 0.00 0.00 0.00 49 1021.0
20260902103506 25 234 8.0 11.3 0.00 0.00 0.00 49 1021.1
20260902103006 25 232 4.8 9.7 0.00 0.00 0.00 49 1021.1
20260902102506 25 238 3.2 9.7 0.00 0.00 0.00 50 1021.2
20260902102006 25 251 3.2 8.0 0.00 0.00 0.00 51 1021.3
20260902101505 25 240 8.0 12.9 0.00 0.00 0.00 52 1021.3
20260902101005 25 320 4.8 11.3 0.00 0.00 0.00 55 1021.3
20260902100506 24 272 1.6 8.0 0.00 0.00 0.00 56 1021.3
20260902100004 24 238 3.2 6.4 0.00 0.00 0.00 58 1021.2
20260902095505 23 202 4.8 8.0 0.00 0.00 0.00 55 1021.1
20260902095004 23 269 4.8 9.7 0.00 0.00 0.00 55 1021.1
20260902094506 23 313 3.2 8.0 0.00 0.00 0.00 57 1021.1
20260902094005 23 229 6.4 8.0 0.00 0.00 0.00 57 1021.2
20260902093505 22 71 1.6 6.4 0.00 0.00 0.00 62 1021.1
20260902093005 22 213 1.6 8.0 0.00 0.00 0.00 60 1021.2
20260902092505 22 165 1.6 11.3 0.00 0.00 0.00 61 1021.3
20260902092006 22 292 3.2 9.7 0.00 0.00 0.00 60 1021.3
20260902091505 22 221 3.2 6.4 0.00 0.00 0.00 62 1021.4
20260902091006 21 242 1.6 6.4 0.00 0.00 0.00 62 1021.5
20260902090506 21 289 3.2 8.0 0.00 0.00 0.00 66 1021.5
20260902090006 21 264 3.2 8.0 0.00 0.00 0.00 69 1021.5
20260902085506 20 279 4.8 8.0 0.00 0.00 0.00 66 1021.5
20260902085005 20 165 4.8 6.4 0.00 0.00 0.00 68 1021.4
20260902084506 20 152 3.2 6.4 0.00 0.00 0.00 70 1021.4
20260902084005 20 248 3.2 6.4 0.00 0.00 0.00 69 1021.3
20260902083506 19 231 3.2 6.4 0.00 0.00 0.00 69 1021.4
20260902083006 19 235 1.6 4.8 0.00 0.00 0.00 73 1021.3
20260902082504 19 166 3.2 8.0 0.00 0.00 0.00 74 1021.3
20260902082006 18 300 1.6 6.4 0.00 0.00 0.00 77 1021.4
20260902081505 18 277 1.6 4.8 0.00 0.00 0.00 79 1021.5
20260902081005 17 230 1.6 4.8 0.00 0.00 0.00 79 1021.3
20260902080505 17 132 3.2 4.8 0.00 0.00 0.00 83 1021.2
20260902080006 16 217 4.8 6.4 0.00 0.00 0.00 84 1021.3
20260902075506 16 196 3.2 6.4 0.00 0.00 0.00 86 1021.2
20260902075005 16 250 1.6 6.4 0.00 0.00 0.00 89 1021.2